Location: Newark
(40.9833°N, 0.0333°W)
Time: 16:56:45
(UTC+00:00)

Transit 4A - Pass Details

Date: 03 November 2020
Orbit: 862 x 982 km, 66.8° (Epoch: 28 November)

Event Time Altitude Azimuth Distance (km) Brightness Sun altitude
Rises 21:39:43 0° 335° (NNW) 3,694 11.5 -53.0°
Enters shadow 21:40:58 - 338° (NNW) 3,263 11.1 -53.1°
Reaches altitude 10° 21:42:32 10° 343° (NNW) 2,739 - -53.4°
Maximum altitude 21:48:27 38° 50° (NE) 1,455 - -54.3°
Drops below altitude 10° 21:54:14 10° 117° (ESE) 2,679 - -55.1°
Sets 21:56:56 0° 126° (SE) 3,605 - -55.5°
